Location: Unspecified
(0.0000°N, 0.0000°E)
Time: 00:14:16
(UTC+00:00)

COSMOS 2452 - Pass Details

Date: 22 May 2026
Orbit: 1481 x 1507 km, 82.5° (Epoch: 10 June)

Event Time Altitude Azimuth Distance (km) Brightness Sun altitude
Rises 01:27:12 0° 13° (NNE) 4,595 ? -59.9°
Reaches altitude 10° 01:30:20 10° 20° (NNE) 3,615 ? -59.4°
Enters shadow 01:31:07 13° 23° (NNE) 3,379 ? -59.2°
